Regional Weather Roundup
Issued by NWS

Home | Current Version | Previous Version | Text Only | Print | Product List | Glossary On
Versions: 1 2 3 4 5 6 7 8 9 10 11 12 13 14 15 16 17 18 19 20 21 22 23 24 25 26 27 28
000
ASUS45 KCYS 090510
RWRWY

WYOMING REGIONAL WEATHER ROUNDUP
NATIONAL WEATHER SERVICE CHEYENNE WY
1000 PM MST THU DEC 08 2016

NOTE:  "FAIR" INDICATES FEW OR NO CLOUDS BELOW 12,000 FEET
WITH NO SIGNIFICANT WEATHER AND/OR OBSTRUCTIONS TO VISIBILITY.

WYZ001-090600-
YELLOWSTONE NATIONAL PARK

CITY           SKY/WX    TMP DP  RH WIND       PRES   REMARKS
LK YELLOWSTONE   N/A      7   4  87 VRB3      29.96F
W YELLOWSTONE  NOT AVBL

$$
WYZ002>013-054>058-071-098>099-090600-
NORTHERN WYOMING

CITY           SKY/WX    TMP DP  RH WIND       PRES   REMARKS
JACKSON        CLOUDY     5   3  92 CALM      30.05F
CODY           FAIR      -3  -7  82 CALM      30.10F
GREYBULL       FAIR       6   0  76 CALM      30.18F
WORLAND        FAIR       5   0  79 NE3       30.15F
SHERIDAN       FAIR       0  -7  72 CALM      30.21F
BUFFALO        CLOUDY     0  -6  76 NW3       30.11F
GILLETTE       FAIR       1  -5  75 E6        30.19F WCI -10
HULETT         FAIR      -2  -8  78 CALM      30.25F
NEWCASTLE      FAIR      10  -4  52 SE12      30.25F WCI  -4

$$
WYZ014>020-022>026-101>103-090600-
CENTRAL WYOMING

CITY           SKY/WX    TMP DP  RH WIND       PRES   REMARKS
BIG PINEY      CLOUDY     8   5  87 CALM      30.09F FOG
PINEDALE       LGT SNOW   9   5  85 NE6       30.09S WCI  -1
DUBOIS         CLOUDY    14   7  73 NW22G30   29.91F WCI  -4
LANDER         FAIR       3  -2  79 S3        30.06F
RIVERTON       FAIR       5  -2  72 NW3       30.07F
CASPER         CLOUDY    -3  -7  82 CALM      30.10F
DOUGLAS        MOCLDY     7   0  73 SE12      30.15F WCI  -8

$$
WYZ021-027>030-104>119-090600-
SOUTHERN WYOMING

CITY           SKY/WX    TMP DP  RH WIND       PRES   REMARKS
EVANSTON       LGT SNOW  18  14  84 SW8       30.07R FOG     WCI   8
FORT BRIDGER   LGT SNOW   8   6  89 CALM      30.12F
ROCK SPRINGS   LGT SNOW   9   6  88 W9        30.10R FOG     WCI  -4
DIXON          CLOUDY    27  12  54 SW6       30.16S WCI  20
RAWLINS        CLOUDY    23  12  62 SW7       30.04F WCI  15
SARATOGA       CLOUDY    23  14  68 CALM      30.07S
LARAMIE        CLOUDY    12   5  73 S9        30.02F WCI   0
CHEYENNE       CLOUDY     8   3  80 S8        30.12F WCI  -4
TORRINGTON     FAIR       6  -1  73 E10       30.24F WCI  -9
PINE BLUFFS    CLOUDY     5   1  85 CALM      30.20F

$$




USA.gov is the U.S. government's official web portal to all federal, state and local government web resources and services.